TAP1824 LPLA-LPPT

Flight info

Callsign TAP1824
Flight time N/A
Altitude 35000
Route MIPRU DCT PODEL DCT 36N020W DCT LUTAK/N0450F360 DCT ESUTI
Aircraft A320/M-SDE3FGHIRWY/LB1

Departure

Time 2026-04-20 13:50
Airport Lajes Airport (LPLA)

Arrival

Time N/A
Airport Lisbon Humberto Delgado Airport (LPPT)
Time Latitude Longitude Altitude Speed Heading
2026-04-20 13:45 38.76177 -27.08833 174 ft 16 kts 143°
2026-04-20 13:46 38.76085 -27.08743 175 ft 17 kts 140°
2026-04-20 13:46 38.75989 -27.08649 176 ft 18 kts 139°
2026-04-20 13:46 38.75899 -27.08540 177 ft 18 kts 141°
2026-04-20 13:46 38.75796 -27.08436 177 ft 19 kts 142°
2026-04-20 13:47 38.75694 -27.08319 179 ft 20 kts 141°
2026-04-20 13:47 38.75585 -27.08200 180 ft 21 kts 139°
2026-04-20 13:47 38.75468 -27.08086 181 ft 21 kts 140°
2026-04-20 13:47 38.75389 -27.08011 182 ft 4 kts 169°
2026-04-20 13:48 38.75374 -27.08031 182 ft 2 kts 234°
2026-04-20 13:48 38.75371 -27.08038 183 ft 0 kts 234°
2026-04-20 13:48 38.75367 -27.08044 183 ft 6 kts 234°
2026-04-20 13:48 38.75338 -27.08098 183 ft 7 kts 235°
2026-04-20 13:49 38.75325 -27.08145 183 ft 5 kts 272°
2026-04-20 13:49 38.75356 -27.08209 183 ft 13 kts 314°
2026-04-20 13:49 38.75491 -27.08353 179 ft 39 kts 321°
2026-04-20 13:49 38.75842 -27.08717 179 ft 101 kts 321°
2026-04-20 13:50 38.76558 -27.09474 199 ft 161 kts 322°
2026-04-20 13:50 38.77496 -27.10477 516 ft 192 kts 322°
2026-04-20 13:50 38.78668 -27.11589 1028 ft 222 kts 326°
2026-04-20 13:50 38.79983 -27.12753 1947 ft 234 kts 329°
2026-04-20 13:51 38.81476 -27.13596 3091 ft 237 kts 344°
2026-04-20 13:51 38.83106 -27.13913 4293 ft 242 kts 357°
2026-04-20 13:51 38.84874 -27.13683 4914 ft 274 kts 12°
2026-04-20 13:51 38.86568 -27.12725 5166 ft 261 kts 31°
2026-04-20 13:52 38.87902 -27.11187 5419 ft 260 kts 47°
2026-04-20 13:52 38.88853 -27.09190 5679 ft 266 kts 63°
2026-04-20 13:52 38.89316 -27.06866 5941 ft 273 kts 81°
2026-04-20 13:52 38.89190 -27.04408 6139 ft 281 kts 100°
2026-04-20 13:53 38.88434 -27.02080 6201 ft 287 kts 121°
2026-04-20 13:53 38.87088 -27.00172 6407 ft 293 kts 143°
2026-04-20 13:53 38.85292 -26.98928 7216 ft 296 kts 162°
2026-04-20 13:53 38.83306 -26.98139 7930 ft 302 kts 164°
2026-04-20 13:54 38.81272 -26.97367 8640 ft 308 kts 165°
2026-04-20 13:54 38.79185 -26.96586 9352 ft 315 kts 165°
2026-04-20 13:54 38.77061 -26.95793 9985 ft 322 kts 165°
2026-04-20 13:54 38.74896 -26.94985 10157 ft 325 kts 165°
2026-04-20 13:55 38.72639 -26.94142 10193 ft 353 kts 164°
2026-04-20 13:55 38.70265 -26.92975 10201 ft 380 kts 152°
2026-04-20 13:55 38.68004 -26.91048 10322 ft 399 kts 137°
2026-04-20 13:55 38.66028 -26.88519 10451 ft 416 kts 130°
2026-04-20 13:56 38.64027 -26.85779 10854 ft 425 kts 131°
2026-04-20 13:56 38.61990 -26.83005 11350 ft 430 kts 131°
2026-04-20 13:56 38.59929 -26.80217 11871 ft 434 kts 131°
2026-04-20 13:56 38.57837 -26.77396 12392 ft 438 kts 132°
2026-04-20 13:57 38.55728 -26.74553 12949 ft 441 kts 132°
2026-04-20 13:57 38.53618 -26.71712 13496 ft 444 kts 132°
2026-04-20 13:57 38.51488 -26.68840 14011 ft 447 kts 132°
2026-04-20 13:57 38.49334 -26.65932 14444 ft 451 kts 132°
2026-04-20 13:58 38.47175 -26.63018 14859 ft 455 kts 132°
2026-04-20 13:58 38.44987 -26.60070 15282 ft 458 kts 133°
2026-04-20 13:58 38.42788 -26.57112 15697 ft 462 kts 133°
2026-04-20 13:58 38.40566 -26.54128 16114 ft 465 kts 133°
2026-04-20 13:59 38.38327 -26.51125 16529 ft 468 kts 133°
2026-04-20 13:59 38.36071 -26.48106 16939 ft 472 kts 133°
2026-04-20 13:59 38.33885 -26.44970 17325 ft 475 kts 125°
2026-04-20 13:59 38.32297 -26.41306 17702 ft 475 kts 109°
2026-04-20 14:00 38.31503 -26.37229 18063 ft 473 kts 93°
2026-04-20 14:00 38.31214 -26.33056 18427 ft 476 kts 91°
2026-04-20 14:00 38.30941 -26.28846 18759 ft 479 kts 91°
2026-04-20 14:00 38.30667 -26.24613 19116 ft 481 kts 91°
2026-04-20 14:01 38.30390 -26.20406 19417 ft 484 kts 91°
2026-04-20 14:01 38.30104 -26.16119 19722 ft 486 kts 91°
2026-04-20 14:01 38.29812 -26.11825 20066 ft 488 kts 91°
2026-04-20 14:01 38.29516 -26.07513 20398 ft 489 kts 91°
2026-04-20 14:02 38.29219 -26.03184 20721 ft 491 kts 91°
2026-04-20 14:02 38.28921 -25.98848 21035 ft 493 kts 91°
2026-04-20 14:02 38.28617 -25.94484 21368 ft 495 kts 91°
2026-04-20 14:02 38.28310 -25.90111 21621 ft 498 kts 91°
2026-04-20 14:03 38.28001 -25.85707 21895 ft 500 kts 91°